• en Belgique
  • Liste des pays
  • À 7 jours
  • Température de l'eau
  • Carte satellitaire
  • Carte météo
  • Widgets météo
  • user-avatar
    Se connecter

    Météo par heure à Audenarde

    Ce jour, 19 Octobre, Vendredi

    Heure Température Précipitation Vent Pression Humidité
    00:00 +10°C° 0 mm 3 m/s 766 mmHg 88%
    01:00 +10°C° 0 mm 3 m/s 766 mmHg 89%
    02:00 +9°C° 0 mm 3 m/s 766 mmHg 91%
    03:00 +9°C° 0 mm 3 m/s 766 mmHg 92%
    04:00 +9°C° 0 mm 3 m/s 766 mmHg 93%
    05:00 +9°C° 0 mm 3 m/s 766 mmHg 93%
    06:00 +8°C° 0 mm 3 m/s 766 mmHg 94%
    07:00 +9°C° 0 mm 3 m/s 767 mmHg 89%
    08:00 +11°C° 0 mm 3 m/s 767 mmHg 84%
    09:00 +12°C° 0 mm 3 m/s 767 mmHg 79%
    10:00 +14°C° 0 mm 2 m/s 767 mmHg 74%
    11:00 +16°C° 0 mm 2 m/s 767 mmHg 70%
    12:00 +17°C° 0 mm 2 m/s 767 mmHg 65%
    13:00 +17°C° 0 mm 3 m/s 767 mmHg 65%
    14:00 +17°C° 0 mm 3 m/s 766 mmHg 65%
    15:00 +17°C° 0 mm 3 m/s 766 mmHg 65%
    16:00 +16°C° 0 mm 3 m/s 767 mmHg 71%
    17:00 +13°C° 0 mm 3 m/s 767 mmHg 76%
    18:00 +12°C° 0 mm 3 m/s 768 mmHg 81%
    19:00 +11°C° 0 mm 3 m/s 768 mmHg 83%
    20:00 +11°C° 0 mm 3 m/s 768 mmHg 84%
    21:00 +10°C° 0 mm 2 m/s 769 mmHg 85%
    22:00 +10°C° 0 mm 2 m/s 769 mmHg 86%
    23:00 +9°C° 0 mm 2 m/s 769 mmHg 87%

    Demain, 20 Octobre, Samedi

    Heure Température Précipitation Vent Pression Humidité
    00:00 +9°C° 0 mm 2 m/s 769 mmHg 88%
    01:00 +9°C° 0 mm 2 m/s 769 mmHg 88%
    02:00 +8°C° 0 mm 2 m/s 770 mmHg 89%
    03:00 +9°C° 0 mm 1 m/s 770 mmHg 90%
    04:00 +9°C° 0 mm 1 m/s 770 mmHg 90%
    05:00 +8°C° 0 mm 2 m/s 771 mmHg 90%
    06:00 +7°C° 0 mm 2 m/s 771 mmHg 91%
    07:00 +9°C° 0 mm 2 m/s 771 mmHg 84%
    08:00 +10°C° 0 mm 2 m/s 772 mmHg 78%
    09:00 +12°C° 0 mm 2 m/s 772 mmHg 72%
    10:00 +14°C° 0 mm 2 m/s 772 mmHg 65%
    11:00 +15°C° 0 mm 2 m/s 772 mmHg 58%
    12:00 +16°C° 0 mm 2 m/s 772 mmHg 52%
    13:00 +16°C° 0 mm 2 m/s 772 mmHg 52%
    14:00 +16°C° 0 mm 2 m/s 771 mmHg 53%
    15:00 +16°C° 0 mm 2 m/s 771 mmHg 53%
    16:00 +15°C° 0 mm 2 m/s 771 mmHg 58%
    17:00 +13°C° 0 mm 2 m/s 772 mmHg 63%
    18:00 +10°C° 0 mm 2 m/s 772 mmHg 68%
    19:00 +11°C° 0 mm 1 m/s 772 mmHg 70%
    20:00 +10°C° 0 mm 1 m/s 772 mmHg 71%
    21:00 +10°C° 0 mm 1 m/s 772 mmHg 73%
    22:00 +10°C° 0 mm 1 m/s 772 mmHg 74%
    23:00 +9°C° 0 mm 1 m/s 772 mmHg 74%

    Après-demain, 21 Octobre, Dimanche

    Heure Température Précipitation Vent Pression Humidité
    00:00 +9°C° 0 mm 1 m/s 772 mmHg 75%
    01:00 +9°C° 0 mm 1 m/s 771 mmHg 75%
    02:00 +8°C° 0 mm 1 m/s 771 mmHg 75%
    03:00 +8°C° 0 mm 1 m/s 771 mmHg 75%
    04:00 +8°C° 0 mm 1 m/s 771 mmHg 75%
    05:00 +8°C° 0 mm 1 m/s 770 mmHg 75%
    06:00 +8°C° 0 mm 1 m/s 770 mmHg 76%
    07:00 +9°C° 0 mm 1 m/s 770 mmHg 70%
    08:00 +11°C° 0 mm 1 m/s 770 mmHg 64%
    09:00 +13°C° 0 mm 1 m/s 770 mmHg 58%
    10:00 +14°C° 0 mm 1 m/s 770 mmHg 55%
    11:00 +16°C° 0 mm 1 m/s 770 mmHg 51%
    12:00 +16°C° 0 mm 0 m/s 769 mmHg 47%
    13:00 +16°C° 0 mm 0 m/s 769 mmHg 48%
    14:00 +18°C° 0 mm 1 m/s 769 mmHg 49%
    15:00 +18°C° 0 mm 1 m/s 768 mmHg 50%
    16:00 +16°C° 0 mm 1 m/s 768 mmHg 56%
    17:00 +14°C° 0 mm 1 m/s 768 mmHg 61%
    18:00 +12°C° 0 mm 1 m/s 768 mmHg 67%
    19:00 +12°C° 0 mm 1 m/s 768 mmHg 69%
    20:00 +11°C° 0 mm 1 m/s 769 mmHg 71%
    21:00 +11°C° 0 mm 1 m/s 769 mmHg 73%
    22:00 +10°C° 0 mm 2 m/s 769 mmHg 76%
    23:00 +10°C° 0 mm 2 m/s 769 mmHg 79%

    22 Octobre, Lundi

    Heure Température Précipitation Vent Pression Humidité
    00:00 +10°C° 0 mm 2 m/s 769 mmHg 82%
    01:00 +11°C° 0.2 mm 3 m/s 770 mmHg 83%
    02:00 +12°C° 0.2 mm 4 m/s 770 mmHg 85%
    03:00 +11°C° 0.2 mm 6 m/s 770 mmHg 86%
    04:00 +11°C° 0.2 mm 6 m/s 770 mmHg 84%
    05:00 +11°C° 0.2 mm 6 m/s 771 mmHg 82%
    06:00 +11°C° 0.2 mm 6 m/s 772 mmHg 80%
    07:00 +11°C° 0 mm 6 m/s 772 mmHg 76%
    08:00 +11°C° 0 mm 6 m/s 773 mmHg 71%
    09:00 +11°C° 0 mm 7 m/s 773 mmHg 67%
    10:00 +13°C° 0 mm 6 m/s 773 mmHg 64%
    11:00 +13°C° 0 mm 6 m/s 774 mmHg 61%
    12:00 +13°C° 0 mm 6 m/s 774 mmHg 58%
    13:00 +13°C° 0 mm 5 m/s 774 mmHg 57%
    14:00 +13°C° 0 mm 5 m/s 774 mmHg 57%
    15:00 +12°C° 0 mm 5 m/s 774 mmHg 56%
    16:00 +12°C° 0 mm 4 m/s 774 mmHg 59%
    17:00 +11°C° 0 mm 4 m/s 775 mmHg 62%
    18:00 +10°C° 0 mm 3 m/s 775 mmHg 65%
    19:00 +10°C° 0 mm 3 m/s 775 mmHg 66%
    20:00 +10°C° 0 mm 3 m/s 775 mmHg 67%
    21:00 +10°C° 0 mm 3 m/s 775 mmHg 68%
    22:00 +10°C° 0 mm 3 m/s 775 mmHg 69%
    23:00 +10°C° 0 mm 3 m/s 774 mmHg 70%

    23 Octobre, Mardi

    Heure Température Précipitation Vent Pression Humidité
    00:00 +9°C° 0 mm 3 m/s 774 mmHg 72%
    01:00 +10°C° 0 mm 3 m/s 774 mmHg 74%
    02:00 +10°C° 0 mm 4 m/s 773 mmHg 77%
    03:00 +10°C° 0 mm 4 m/s 773 mmHg 79%
    04:00 +10°C° 0.1 mm 4 m/s 773 mmHg 81%
    05:00 +10°C° 0.1 mm 4 m/s 772 mmHg 83%
    06:00 +11°C° 0.1 mm 4 m/s 772 mmHg 84%
    07:00 +11°C° 0.1 mm 4 m/s 772 mmHg 83%
    08:00 +12°C° 0.1 mm 5 m/s 772 mmHg 81%
    09:00 +13°C° 0.1 mm 5 m/s 772 mmHg 80%
    10:00 +13°C° 0.1 mm 5 m/s 772 mmHg 79%
    11:00 +13°C° 0.1 mm 5 m/s 772 mmHg 77%
    12:00 +14°C° 0.1 mm 5 m/s 772 mmHg 75%
    13:00 +14°C° 0.1 mm 5 m/s 772 mmHg 76%
    14:00 +14°C° 0.1 mm 5 m/s 772 mmHg 76%
    15:00 +13°C° 0.1 mm 5 m/s 772 mmHg 77%
    16:00 +12°C° 0 mm 4 m/s 772 mmHg 80%
    17:00 +11°C° 0 mm 4 m/s 772 mmHg 84%
    18:00 +11°C° 0 mm 3 m/s 772 mmHg 88%
    19:00 +10°C° 0 mm 3 m/s 772 mmHg 88%
    20:00 +10°C° 0 mm 3 m/s 772 mmHg 88%
    21:00 +10°C° 0 mm 3 m/s 772 mmHg 88%
    22:00 +10°C° 0 mm 3 m/s 772 mmHg 88%
    23:00 +10°C° 0 mm 3 m/s 772 mmHg 89%

    24 Octobre, Mercredi

    Heure Température Précipitation Vent Pression Humidité
    00:00 +10°C° 0 mm 3 m/s 772 mmHg 89%
    01:00 +10°C° 0 mm 3 m/s 772 mmHg 90%
    02:00 +9°C° 0 mm 3 m/s 771 mmHg 91%
    03:00 +9°C° 0 mm 3 m/s 771 mmHg 91%
    04:00 +9°C° 0 mm 3 m/s 771 mmHg 92%
    05:00 +9°C° 0 mm 3 m/s 771 mmHg 93%
    06:00 +9°C° 0 mm 3 m/s 771 mmHg 93%
    07:00 +11°C° 0 mm 3 m/s 771 mmHg 89%
    08:00 +12°C° 0 mm 3 m/s 772 mmHg 85%
    09:00 +13°C° 0 mm 4 m/s 772 mmHg 81%
    10:00 +14°C° 0 mm 4 m/s 771 mmHg 78%
    11:00 +15°C° 0 mm 4 m/s 771 mmHg 76%
    12:00 +15°C° 0 mm 4 m/s 771 mmHg 74%
    13:00 +15°C° 0 mm 4 m/s 771 mmHg 76%
    14:00 +15°C° 0 mm 4 m/s 771 mmHg 78%
    15:00 +15°C° 0 mm 4 m/s 771 mmHg 80%
    16:00 +14°C° 0 mm 3 m/s 771 mmHg 83%
    17:00 +14°C° 0 mm 3 m/s 771 mmHg 86%
    18:00 +14°C° 0 mm 2 m/s 771 mmHg 89%
    19:00 +14°C° 0 mm 2 m/s 771 mmHg 89%
    20:00 +14°C° 0 mm 2 m/s 771 mmHg 89%
    21:00 +14°C° 0 mm 2 m/s 772 mmHg 89%
    22:00 +14°C° 0 mm 2 m/s 772 mmHg 87%
    23:00 +14°C° 0 mm 2 m/s 772 mmHg 86%
    Voir plus